Theta_e
313 314 318 317 321 324 327 328 324 322 320 320 325 324 320 318 318 319 319 323 318 312 315 317 315 316 319 324 328 326 317 314 317 321 323 323 323 322 323 323 320 319 319 317 317 318 318 317 317 317 317 317 317 316 316 315 314 311 311 314 316 315 315 313 315 316 317 316 316 316 318 319 320 321 322 323 323 322 322 322 321 320 319 319 320 322
315 313 319 323 324 323 328 331 325 322 323 324 323 319 318 319 319 318 322 329 323 314 318 321 318 320 327 334 337 331 319 316 318 320 323 322 322 321 322 323 320 319 319 318 319 318 318 318 316 316 317 317 317 316 316 315 314 309 309 312 314 315 315 314 315 317 317 316 315 314 316 318 318 319 319 319 319 318 319 321 319 318 317 318 318 320
319 317 321 323 322 320 326 331 326 326 331 329 324 318 320 322 319 321 332 336 328 321 321 321 320 326 335 335 337 336 325 324 323 319 321 321 321 321 321 323 321 320 321 321 321 319 318 318 317 317 317 317 317 317 316 315 312 308 308 311 313 315 316 316 316 317 317 316 315 312 313 315 316 316 315 313 314 314 316 318 318 318 318 318 318 319
317 322 324 323 323 322 325 328 323 324 331 331 325 318 321 323 318 323 333 335 330 323 320 324 323 330 339 334 334 334 325 327 326 321 322 320 321 321 320 321 321 320 321 321 322 321 318 317 317 317 317 316 316 316 316 315 311 307 308 311 314 316 317 317 317 318 316 315 315 312 312 315 314 313 312 311 313 314 315 316 317 319 318 316 317 318
314 319 321 322 328 324 321 324 322 320 323 328 327 321 323 325 320 322 327 332 335 330 325 326 325 334 340 330 331 329 321 325 326 321 322 319 319 320 320 321 321 320 320 320 321 322 319 317 317 317 316 316 316 316 316 315 310 306 308 312 315 317 317 317 318 318 315 313 315 313 314 316 313 311 312 312 314 315 316 317 318 317 314 312 314 317
315 316 316 317 325 326 322 324 326 324 323 326 330 330 329 327 323 323 326 328 331 330 325 317 320 338 342 330 330 329 324 328 325 319 321 320 317 318 318 319 321 321 319 319 320 321 320 317 316 317 317 316 315 316 315 314 310 306 308 312 315 317 317 317 318 317 314 312 313 312 314 316 313 312 313 312 312 313 314 316 317 315 311 312 314 316
318 321 322 317 320 325 324 323 326 327 324 322 329 336 331 327 325 325 324 323 324 324 323 320 320 332 337 334 332 327 323 326 323 320 322 321 317 316 317 316 319 321 320 319 320 320 319 318 316 316 316 316 315 315 315 315 310 306 308 312 314 316 316 317 318 318 315 312 312 312 312 313 313 312 312 310 311 311 312 314 314 312 312 314 314 314
319 323 326 321 321 323 322 324 326 326 324 322 330 336 330 324 324 327 325 325 327 321 323 331 325 321 328 333 328 323 322 324 322 322 322 321 318 316 315 315 317 318 319 319 320 320 320 317 316 316 316 316 315 315 315 315 311 307 309 311 314 315 316 317 318 318 316 313 311 312 312 312 313 312 311 310 310 310 311 311 310 310 311 313 313 312
318 317 324 324 321 320 323 332 330 323 321 327 333 329 324 322 325 332 328 324 326 317 321 335 325 315 327 333 328 322 319 321 323 322 322 322 317 315 314 314 315 317 318 319 320 320 319 318 317 317 317 317 315 315 315 315 312 309 309 311 313 314 315 318 319 317 316 313 312 311 311 312 313 313 312 311 311 310 309 308 308 308 309 311 312 312
316 316 326 324 320 323 331 336 332 323 321 327 329 322 322 327 329 330 327 323 324 317 320 333 323 314 323 333 332 322 317 321 325 322 320 318 315 315 315 313 314 315 316 317 319 320 318 317 318 317 317 316 316 315 315 315 313 311 310 311 313 313 314 318 319 315 314 313 312 312 311 311 312 314 315 314 313 312 309 307 307 307 308 309 310 311
316 318 325 321 319 329 333 328 324 322 321 321 322 320 321 327 329 330 331 325 319 320 326 331 324 315 318 329 333 324 320 322 321 320 318 315 313 314 313 313 313 315 316 317 319 320 318 317 317 317 317 316 316 315 315 315 314 312 312 312 313 312 313 318 318 314 313 313 312 312 311 310 312 314 316 315 314 314 311 308 306 307 307 309 310 311
316 313 320 321 319 322 319 316 315 316 320 320 322 324 320 323 326 328 331 322 315 324 330 328 323 316 316 327 331 326 323 320 317 318 317 314 313 313 313 312 312 313 315 317 318 319 319 319 318 317 316 316 315 316 315 316 315 315 314 314 314 313 313 316 318 315 313 313 312 312 311 311 312 314 315 315 313 312 310 308 307 306 306 308 311 312
319 315 318 318 317 316 312 316 315 314 320 320 322 325 320 320 320 322 325 320 320 324 322 321 321 317 319 326 325 323 321 317 316 316 315 314 313 312 313 313 312 313 314 316 318 319 321 321 318 316 316 316 315 316 316 316 316 316 316 316 315 315 314 315 317 317 315 314 314 313 312 312 314 315 315 315 313 311 309 308 307 307 307 307 309 311
322 324 321 313 314 316 313 318 317 314 317 316 318 323 320 318 317 320 323 317 317 322 318 318 319 319 324 321 318 320 318 315 316 314 313 313 313 313 312 311 313 314 314 316 317 319 321 320 318 317 317 316 316 316 316 316 317 317 318 319 317 317 317 317 317 317 317 316 316 315 313 313 315 316 316 316 315 312 311 311 309 307 306 307 307 308
318 322 322 314 314 314 312 316 318 318 317 314 315 316 319 323 320 320 322 315 315 320 319 316 317 325 325 315 315 320 316 313 313 312 312 312 311 311 310 310 312 313 315 318 319 319 320 318 317 318 318 317 317 317 316 316 317 317 318 319 319 319 319 319 318 318 318 317 316 316 314 314 314 316 316 316 315 314 313 312 312 310 308 307 308 309
312 316 323 316 312 313 311 313 314 315 317 315 314 312 314 322 324 319 317 318 319 319 320 317 320 329 323 312 316 317 313 313 311 309 311 310 310 309 309 310 310 311 314 317 320 320 319 317 317 318 318 318 318 317 317 317 317 318 319 319 320 320 319 320 320 319 319 318 317 316 315 314 314 315 315 315 314 314 314 314 313 312 311 309 309 310
313 318 323 316 312 314 311 312 310 310 317 316 312 314 315 314 319 320 316 318 319 317 319 318 319 326 321 313 317 316 313 313 311 310 310 309 309 308 309 310 309 309 311 314 319 321 319 317 316 318 318 319 319 318 318 318 318 319 319 319 320 320 320 321 321 320 320 318 317 317 316 315 315 315 315 315 314 314 314 314 314 313 312 311 310 311
319 323 323 315 313 314 310 311 311 309 315 318 313 316 317 314 320 324 319 322 321 317 321 320 317 323 322 316 318 317 314 314 311 311 310 309 310 309 309 309 308 309 309 310 314 318 320 318 316 317 318 318 319 319 319 319 319 319 319 320 320 320 321 321 321 321 320 319 318 318 317 317 316 316 315 315 314 314 315 314 314 314 313 312 311 311
317 322 325 319 312 314 315 312 313 314 314 315 315 315 315 319 325 324 319 322 319 316 322 323 317 318 319 319 319 316 314 314 312 311 311 312 311 310 310 309 308 309 309 309 310 313 317 316 315 317 318 318 319 319 320 320 320 320 320 320 321 321 321 321 321 321 321 320 319 319 319 318 318 316 316 316 315 315 315 315 315 314 313 314 312 311
317 317 322 323 312 311 320 320 318 320 316 313 314 315 318 323 322 318 317 318 318 317 322 323 317 317 322 322 318 316 315 313 313 313 313 312 311 311 311 309 309 310 310 309 309 309 312 312 313 317 317 318 319 319 320 320 321 321 320 321 321 321 321 321 322 321 321 320 320 319 319 319 319 318 316 317 316 316 316 315 315 314 314 314 314 312
318 314 319 327 318 312 318 321 318 320 319 318 316 316 319 320 316 314 314 314 317 321 323 321 318 324 328 322 316 316 316 314 313 314 313 311 310 310 309 309 310 310 310 310 309 309 310 308 309 315 317 317 318 318 319 320 321 322 321 321 321 321 321 321 321 321 321 321 320 319 319 320 320 319 317 317 317 316 316 315 315 315 314 315 314 313
317 316 321 326 321 317 319 317 314 315 319 319 317 315 316 316 315 313 313 316 318 318 321 321 320 326 326 318 316 316 316 315 314 314 313 310 310 310 308 308 308 309 310 309 308 310 310 306 306 312 317 317 318 318 318 319 320 322 322 322 322 322 321 321 321 321 321 320 320 319 320 321 321 319 318 317 317 317 316 316 315 314 315 315 314 314
320 321 321 320 320 319 315 311 310 310 312 314 314 317 317 315 316 315 316 322 319 315 317 317 319 327 324 317 317 315 315 316 314 314 314 310 310 310 309 307 306 308 308 308 309 310 307 305 306 309 313 315 318 319 318 319 319 321 322 322 322 321 322 322 322 321 321 320 320 320 320 320 321 320 318 317 317 316 315 315 315 315 315 315 314 314
319 318 315 318 323 319 313 312 309 308 310 310 311 315 315 313 315 318 320 322 319 317 318 315 317 324 325 320 316 312 313 314 311 312 314 311 310 309 308 309 308 308 308 308 310 309 305 305 306 307 308 310 313 316 319 319 319 320 321 322 322 322 322 322 322 321 321 320 320 320 319 319 320 319 318 317 317 316 316 316 316 315 315 314 314 313
313 317 315 314 318 316 316 318 314 314 316 312 309 311 311 311 312 315 316 315 315 318 318 318 320 321 320 319 317 315 314 313 310 310 311 310 308 307 307 309 310 311 311 310 310 310 308 307 307 306 307 308 309 312 315 319 320 321 321 322 322 322 322 322 321 321 321 320 320 319 319 319 319 318 318 317 317 316 316 316 316 315 314 314 314 312
309 314 315 314 314 313 314 315 315 318 317 311 308 308 309 309 309 311 313 310 314 317 315 317 322 320 316 314 314 317 317 313 310 311 312 310 308 307 308 309 311 312 312 311 310 310 309 308 306 304 306 307 308 310 311 314 318 320 322 323 323 323 323 322 322 322 321 320 320 319 319 319 318 318 318 317 317 316 316 316 315 314 314 314 313 311
314 312 315 318 317 313 311 312 314 315 313 309 310 308 308 310 311 313 312 309 316 318 313 315 319 315 314 312 310 313 316 314 311 311 312 311 308 308 309 309 310 310 309 309 309 309 308 309 307 304 305 307 308 310 310 310 312 314 317 320 322 323 324 323 323 322 321 321 320 319 320 320 319 319 318 318 317 317 316 316 315 314 313 313 312 310
314 311 313 313 313 312 310 309 310 310 309 309 310 309 309 312 312 311 311 312 315 313 310 317 320 313 313 314 309 308 313 314 311 310 310 308 308 309 310 310 310 310 309 309 309 310 309 310 309 305 304 307 308 308 309 309 309 309 311 314 317 320 322 323 324 324 322 321 320 319 319 319 319 319 318 317 317 316 316 315 314 313 313 312 310 310
309 310 312 309 311 313 310 308 309 309 309 309 310 309 309 311 311 309 311 315 314 310 310 317 318 313 310 312 311 309 309 310 309 310 309 309 311 314 314 314 313 311 310 310 310 310 309 310 310 306 304 307 308 308 308 308 308 308 309 310 313 316 319 321 323 324 323 322 320 319 319 318 318 317 317 316 316 316 315 314 314 313 312 311 310 310
309 312 312 307 308 313 311 310 310 308 308 308 308 309 309 310 312 311 312 315 312 310 312 313 312 311 308 309 312 312 309 308 309 311 313 313 316 317 316 314 313 311 310 310 310 310 310 310 308 305 305 307 307 308 309 308 309 309 308 308 309 312 315 318 321 322 323 323 321 320 320 319 317 316 315 314 314 314 314 314 313 312 311 311 310 310
309 311 312 309 309 312 313 312 309 306 307 307 306 307 308 310 312 309 309 310 308 309 311 309 307 310 310 308 309 310 311 311 312 314 315 316 317 317 315 314 312 311 310 310 311 311 311 311 308 305 306 307 307 308 308 308 309 308 308 307 307 309 312 315 318 321 321 322 322 321 321 320 318 315 314 312 312 313 313 313 313 312 311 311 310 310
308 309 312 311 308 310 313 310 309 309 308 306 305 307 307 310 312 310 309 310 309 309 309 306 306 312 313 309 309 311 314 314 313 313 314 316 316 314 312 312 312 311 311 310 310 310 310 311 310 307 306 306 307 307 307 308 308 308 307 307 307 307 309 311 315 317 320 320 321 321 321 320 317 315 313 313 314 314 314 313 313 312 311 311 311 310
308 307 310 310 307 309 311 308 308 309 307 308 311 310 308 309 310 308 307 310 311 309 308 308 311 315 313 310 311 314 313 313 313 313 313 314 315 312 309 310 310 310 311 310 309 309 309 308 308 306 306 307 307 307 307 307 307 307 307 307 306 307 308 309 311 314 317 318 319 320 320 318 316 315 314 315 315 315 315 313 312 312 311 311 310 309
309 305 307 308 306 309 311 308 308 308 307 310 315 314 309 310 310 306 307 313 313 309 310 311 313 313 311 312 314 314 312 311 312 313 312 310 312 311 309 310 310 309 309 308 308 309 306 303 304 306 307 307 307 307 307 307 306 306 306 306 307 307 308 309 310 312 314 316 317 318 318 317 316 315 314 315 314 313 313 312 312 311 311 310 309 308
306 305 306 307 305 307 308 306 307 307 306 307 311 311 309 311 312 310 311 317 315 311 311 311 310 311 311 313 313 312 313 312 311 312 312 310 311 310 309 310 310 309 309 308 308 308 304 301 303 306 307 307 307 307 306 306 306 306 306 306 307 307 308 309 310 310 312 314 316 316 316 315 315 314 313 313 313 313 312 312 312 311 310 309 308 307
304 305 305 305 306 306 305 306 307 306 304 305 308 309 308 308 307 306 309 312 311 309 311 312 311 311 311 312 312 312 312 311 309 312 313 312 311 310 308 308 309 309 309 307 306 304 302 302 304 305 306 307 306 306 306 306 306 306 306 306 307 307 308 309 310 311 311 313 314 315 316 315 313 312 312 312 313 313 312 312 311 310 309 308 306 305
303 304 304 304 305 305 306 308 308 304 304 306 305 305 305 305 305 304 305 309 308 307 310 312 312 312 312 313 313 312 309 305 305 309 312 310 310 310 308 306 305 306 305 303 303 303 303 304 305 305 306 306 306 306 306 305 306 306 306 307 307 308 309 309 310 311 311 312 313 314 315 314 312 311 311 312 312 311 311 311 310 309 308 306 304 303
302 303 305 305 305 304 305 306 306 305 307 308 305 304 305 304 303 303 304 306 307 307 309 312 312 312 312 312 312 309 306 303 303 307 308 307 308 309 307 303 301 302 302 302 302 303 304 304 305 304 305 305 305 306 305 305 306 306 306 306 307 308 309 310 310 310 311 312 313 313 314 312 310 310 311 312 311 311 310 310 308 307 306 305 303 302
305 304 304 304 305 304 304 305 305 305 307 307 306 307 307 304 304 308 309 308 306 307 309 310 309 311 312 312 310 307 305 305 305 306 307 306 306 306 306 304 301 301 302 303 303 303 303 303 303 303 304 304 305 305 305 306 306 306 306 307 308 308 309 309 310 310 311 312 312 313 313 311 310 310 310 310 310 309 308 307 306 305 304 303 302 300
308 307 304 303 305 306 305 305 305 304 305 306 307 307 306 305 308 311 311 308 305 305 307 308 308 310 312 311 309 306 306 307 306 304 305 306 305 303 303 304 302 301 302 303 303 303 303 302 302 303 303 304 304 305 305 306 306 306 307 307 308 308 308 309 309 310 310 311 312 311 311 309 308 308 308 307 307 306 306 305 304 303 301 300 299 298
306 306 305 305 306 305 304 304 305 305 305 307 308 307 306 306 308 309 308 306 303 302 304 306 307 310 311 310 308 308 308 308 305 304 305 306 306 304 301 301 301 301 301 302 302 302 302 302 302 303 303 304 304 304 305 306 306 306 307 307 307 307 308 308 309 310 310 311 310 309 308 307 306 305 305 305 305 304 303 302 301 300 299 298 298 298
303 303 303 305 304 304 305 305 305 306 305 306 308 307 305 304 306 307 306 303 301 302 303 305 307 309 308 309 309 308 308 307 305 304 304 304 306 305 301 300 300 301 301 301 301 301 301 301 302 303 303 304 304 305 306 307 307 307 307 306 306 307 308 308 309 310 310 309 308 307 307 306 305 304 303 303 302 301 299 299 298 298 298 298 298 298
301 301 303 304 303 303 304 304 304 304 304 305 305 304 303 303 305 305 304 303 303 304 305 305 307 307 306 306 307 307 306 305 305 304 304 303 304 304 302 300 299 299 300 301 301 301 301 302 302 303 304 304 305 305 306 307 307 307 306 305 306 307 308 308 309 309 308 306 305 305 304 304 304 303 301 299 298 297 298 298 298 298 298 299 298 298
300 300 302 303 302 302 303 304 305 305 303 303 305 304 304 304 303 303 304 305 306 307 306 306 306 307 306 306 306 306 306 305 305 305 305 304 304 304 302 299 299 299 300 300 301 301 301 301 302 303 304 305 305 305 306 307 306 305 304 304 305 306 307 307 308 307 306 304 304 304 304 304 302 300 298 297 297 297 297 298 298 298 298 298 298 298
300 300 301 302 301 301 302 304 305 304 302 303 305 305 303 303 305 306 306 305 305 306 306 305 304 305 307 306 306 306 306 305 305 305 304 304 304 303 301 300 299 299 300 300 301 301 302 302 303 303 304 305 305 305 306 306 304 303 303 303 304 305 306 306 306 305 303 303 303 303 302 301 299 297 297 297 297 297 298 298 298 298 298 297 297 298
300 299 299 300 301 300 300 300 299 299 300 301 301 302 301 301 304 306 305 304 304 304 304 303 302 304 304 304 305 305 304 305 305 304 303 303 302 302 301 299 298 299 299 300 300 301 302 302 303 303 304 304 304 305 306 305 303 302 302 302 303 304 305 305 304 303 302 302 302 301 300 298 297 297 298 298 298 298 298 297 297 297 297 297 297 297
299 297 297 298 299 299 300 301 299 298 298 298 297 298 300 301 303 304 303 302 302 302 303 303 303 303 303 303 304 304 304 304 304 302 302 302 301 302 301 299 298 299 299 300 300 301 302 303 303 304 304 304 304 305 305 303 302 302 302 302 302 302 303 302 302 301 301 301 301 300 299 298 297 298 298 297 297 297 297 297 297 297 296 297 297 296
298 297 297 299 298 298 299 301 299 297 297 297 297 298 299 300 301 301 301 300 301 301 302 301 301 302 303 302 302 302 303 302 301 301 301 301 301 301 300 298 297 299 300 300 301 301 302 303 304 304 304 304 304 305 304 302 302 302 302 301 301 301 301 301 300 300 300 300 299 299 298 298 298 298 298 298 297 297 297 297 296 296 296 296 296 295
297 297 298 298 298 297 298 298 297 297 297 298 298 299 299 300 299 298 299 299 300 301 301 300 299 299 301 302 302 302 301 301 301 301 300 300 301 301 299 298 298 299 300 300 301 302 303 304 304 304 304 304 305 304 303 302 301 301 301 301 300 300 299 299 299 299 299 299 299 298 298 298 298 298 297 297 297 297 297 297 296 296 295 295 295 294
297 297 297 297 297 298 298 297 296 297 297 297 297 297 298 298 298 298 299 300 300 300 300 300 299 298 298 298 298 300 301 301 300 300 300 301 300 299 298 298 299 299 300 300 301 302 303 303 304 304 304 304 304 304 302 301 300 300 300 300 300 299 298 298 299 299 299 298 298 298 298 298 298 298 297 297 297 297 297 296 295 295 294 294 294 293
298 298 297 297 298 297 297 296 296 296 296 296 296 296 296 297 298 299 299 299 299 299 299 300 300 300 300 299 297 298 301 301 299 299 300 300 299 298 298 299 299 299 300 301 301 302 302 303 304 303 304 304 303 302 301 300 299 300 300 300 300 299 299 298 298 298 297 297 297 298 298 298 298 297 297 297 297 297 297 296 295 294 293 294 294 294
Wind_Speed
2 1 2 4 6 7 7 6 6 4 4 3 3 4 1 1 3 5 5 6 1 3 3 5 4 3 4 8 7 3 2 7 9 8 7 7 7 8 9 9 11 11 8 9 16 21 22 23 25 27 28 28 27 26 25 24 22 20 22 23 23 22 21 21 21 21 20 17 14 13 12 12 11 10 9 9 8 6 5 3 2 2 2 3 3 2
2 0 5 8 9 8 6 5 4 4 4 3 3 2 3 0 3 5 4 6 3 4 3 4 1 3 5 6 7 5 1 5 9 10 10 11 10 9 10 11 10 6 4 7 12 17 17 18 22 25 28 30 29 28 27 25 24 22 23 24 25 24 23 22 21 21 20 18 15 14 13 13 12 10 7 7 6 5 5 3 2 2 1 2 2 2
4 4 10 9 6 3 1 2 4 5 5 3 2 2 2 2 3 6 5 6 4 3 3 3 2 4 7 6 7 6 3 4 7 11 11 11 10 9 10 9 7 6 6 8 10 14 17 18 20 24 26 29 29 30 29 26 25 25 25 25 26 26 25 23 20 19 19 18 15 13 12 12 11 9 6 6 5 5 5 5 3 2 1 2 2 1
2 7 9 3 5 5 1 2 5 3 3 3 3 3 2 3 0 3 5 6 4 2 1 1 3 5 6 5 6 5 4 4 3 9 10 10 11 12 11 9 9 11 10 11 11 12 14 16 19 23 25 26 27 29 30 29 29 29 28 27 28 28 25 23 20 17 17 18 16 13 12 12 10 9 8 7 6 6 5 5 4 2 2 4 4 2
6 9 4 3 5 6 3 1 4 4 1 2 3 5 3 3 3 4 4 5 5 5 2 4 5 5 5 4 6 5 4 5 3 2 5 8 11 11 10 9 10 11 12 13 14 12 11 16 20 23 24 25 27 30 32 31 32 31 30 29 30 28 26 23 20 17 17 19 18 16 14 12 11 10 10 9 7 6 6 5 4 2 1 3 4 4
8 7 1 1 3 5 5 4 4 6 3 4 3 6 7 5 4 3 3 5 4 4 3 3 2 5 5 4 6 5 5 5 5 4 6 7 7 8 9 10 10 10 10 11 14 14 14 17 19 20 23 25 28 31 32 33 33 32 31 31 30 29 27 24 21 19 19 20 20 19 17 15 13 13 12 10 8 7 6 5 3 2 2 3 3 4
5 5 2 2 4 4 5 5 4 6 4 2 5 7 7 5 4 3 1 4 2 3 4 2 3 4 5 4 6 5 6 8 7 6 8 8 5 8 10 10 11 11 11 10 11 13 15 16 17 19 25 29 30 30 31 33 34 34 32 32 31 30 28 25 23 21 21 21 21 19 18 17 16 15 13 10 8 6 5 5 4 3 4 5 4 3
3 6 6 2 1 3 4 4 5 7 7 3 5 6 7 5 5 5 5 4 2 3 4 4 4 2 4 5 6 5 6 9 9 8 9 9 8 8 10 11 12 14 13 12 12 14 15 16 19 23 29 31 30 29 31 34 35 35 33 32 32 31 29 26 24 23 23 23 23 20 17 16 15 14 12 10 9 8 7 6 5 5 5 4 4 5
1 3 4 0 3 2 5 6 7 8 4 6 5 6 5 4 5 5 6 4 1 1 3 5 2 1 4 6 6 5 4 7 8 9 10 10 10 8 9 12 13 14 15 14 15 16 15 18 24 29 31 30 29 30 33 35 35 35 34 33 32 30 29 27 25 25 25 25 24 21 18 17 15 13 12 12 11 10 9 7 7 7 6 5 4 4
3 4 5 4 3 4 6 5 8 10 4 4 5 5 3 4 4 4 5 3 2 2 4 6 1 2 4 6 4 3 3 6 7 8 9 10 11 8 8 10 11 12 12 14 16 16 19 25 29 28 27 27 29 30 32 33 34 35 35 34 33 31 30 28 26 27 27 27 25 22 19 17 17 15 14 14 14 13 11 9 9 7 6 6 5 3
4 3 3 4 4 6 6 3 5 7 5 3 5 4 5 5 4 3 2 3 2 1 6 7 5 4 2 5 4 3 4 3 4 7 9 10 10 9 6 7 10 11 12 13 14 16 20 21 20 21 23 25 26 27 29 31 33 36 36 36 34 32 31 29 28 28 29 29 26 23 20 19 18 18 17 16 16 15 14 12 10 8 7 6 5 4
7 3 2 3 3 4 3 1 1 1 2 4 4 4 2 3 4 4 4 3 1 4 6 6 4 5 2 5 5 5 5 3 3 6 9 11 11 11 7 2 6 8 11 14 14 14 12 10 14 19 21 22 24 27 29 32 34 36 37 37 35 33 32 31 30 30 31 29 27 24 21 20 20 20 20 19 19 18 16 14 12 10 8 7 6 5
4 4 3 5 3 4 4 0 3 5 5 5 4 5 3 1 3 2 3 1 3 5 5 4 2 2 4 6 5 6 7 7 5 6 7 7 9 11 10 4 3 1 4 8 11 11 9 9 12 18 21 23 26 30 33 34 35 35 36 36 37 36 35 34 32 32 32 30 28 25 23 22 21 21 21 21 20 19 17 15 13 12 11 9 8 7
3 5 5 4 3 1 5 3 2 3 1 3 4 4 4 2 2 2 3 2 3 5 4 3 2 2 3 3 5 6 7 6 5 4 2 5 10 11 11 8 5 4 3 3 5 5 8 10 13 18 23 25 29 33 35 34 33 32 33 36 37 37 37 36 34 33 33 31 29 27 25 24 23 23 22 22 22 21 19 16 15 13 12 11 10 8
0 4 3 1 2 2 3 4 5 4 3 3 3 5 4 4 3 4 3 3 4 4 4 3 2 2 1 1 6 7 5 4 4 2 5 9 9 10 12 12 10 6 2 4 4 5 6 10 16 21 24 27 30 33 34 33 33 32 33 35 37 37 37 36 36 35 34 33 31 29 27 26 25 24 23 23 23 22 20 18 16 15 13 12 11 9
1 5 6 3 2 2 2 2 5 6 2 2 2 5 2 4 5 2 2 4 3 1 2 2 2 3 2 3 6 5 2 4 6 7 11 11 10 12 13 11 10 9 6 2 4 6 4 6 11 17 23 28 31 32 31 32 32 33 34 35 37 37 37 38 38 37 36 35 33 31 29 28 26 25 24 24 24 23 22 20 18 16 15 14 12 9
1 4 6 4 3 2 2 1 0 3 1 1 1 2 4 3 6 3 1 0 3 1 3 1 2 4 1 1 6 4 4 7 8 10 11 9 11 14 11 9 9 9 8 6 2 4 4 4 8 12 14 17 20 25 30 34 37 37 35 34 35 35 36 37 38 38 37 36 35 34 32 29 28 27 26 26 26 25 24 22 19 18 17 15 13 11
4 3 6 0 0 3 1 4 5 3 3 4 1 4 3 1 3 3 0 3 4 0 4 1 2 4 1 1 6 6 7 7 7 7 9 9 11 12 9 8 9 8 8 8 6 4 1 5 9 10 11 11 12 16 22 28 32 33 33 34 35 36 36 38 39 38 38 38 37 35 33 31 29 28 28 28 27 26 25 24 21 20 19 17 14 14
3 2 7 1 2 4 4 4 2 6 3 5 3 2 1 1 1 1 1 0 0 1 3 3 2 3 3 4 3 0 3 3 5 7 9 9 9 8 7 7 8 9 8 8 8 7 5 0 7 11 11 10 12 15 18 20 21 23 27 30 33 36 37 38 38 38 38 38 38 37 35 33 30 29 29 29 29 27 26 26 24 22 21 18 17 16
2 1 6 4 1 3 5 2 2 4 5 2 2 3 2 3 3 0 1 2 2 3 2 3 3 2 5 6 6 6 6 4 4 6 7 6 5 5 5 6 7 7 7 7 8 8 8 8 5 9 15 14 14 16 18 19 20 22 24 25 28 31 32 33 35 36 37 38 38 38 36 34 31 30 31 31 30 29 28 27 25 23 22 21 19 19
2 2 4 6 4 2 3 0 4 3 1 2 3 3 3 1 1 0 0 2 3 3 2 2 3 4 5 4 7 8 6 5 5 6 5 5 5 4 3 4 5 6 7 7 8 8 8 11 14 6 11 15 15 16 18 19 21 23 23 25 27 28 28 31 34 35 37 38 38 38 37 36 33 32 32 32 31 30 29 27 26 25 24 23 22 21
1 1 3 3 4 2 4 4 4 5 5 4 2 1 1 1 0 1 2 2 1 2 3 4 2 5 5 2 3 6 6 5 5 5 4 3 4 4 3 2 3 5 6 6 6 8 8 10 16 14 3 7 11 15 17 19 21 23 26 30 30 29 30 32 34 36 37 37 38 38 38 37 35 34 34 33 32 31 29 28 27 25 25 24 23 22
2 3 2 2 4 4 7 7 4 4 4 5 2 2 3 3 3 3 3 3 1 1 1 4 1 5 5 3 1 3 4 5 4 4 4 2 3 4 4 3 3 4 5 6 6 7 8 10 15 17 13 6 4 10 14 18 21 24 27 29 28 29 31 33 34 36 37 36 37 39 38 38 37 36 36 35 34 33 31 29 27 26 25 25 24 23
1 3 2 2 3 4 6 5 2 1 3 5 1 1 4 4 4 4 4 2 2 2 1 2 2 5 5 4 2 1 2 3 4 1 3 2 1 4 5 5 5 5 5 6 6 6 8 12 15 16 16 14 10 5 8 14 18 21 24 25 26 28 32 34 34 34 35 36 37 38 38 38 38 38 37 37 36 34 32 30 27 26 26 25 24 22
2 0 2 2 4 5 7 6 4 4 2 3 0 2 3 3 4 2 1 3 1 3 3 4 3 5 4 5 4 4 4 5 5 3 2 3 2 3 4 5 4 5 6 6 7 7 8 10 11 12 15 17 17 14 7 8 13 18 21 23 26 29 33 33 31 31 33 35 36 37 37 37 38 38 38 38 36 34 33 30 28 26 26 25 23 20
2 1 2 2 2 3 2 3 3 3 1 0 1 2 2 2 3 1 1 3 1 3 2 4 3 4 4 5 6 5 5 4 6 6 3 3 3 2 2 3 4 5 6 7 7 7 6 6 7 11 15 18 19 19 15 10 8 13 18 21 24 27 30 31 29 30 32 34 35 36 36 37 37 38 38 37 36 34 32 30 27 26 26 25 22 18
2 1 2 5 5 6 5 6 5 2 2 3 2 3 2 1 1 3 2 2 3 2 2 4 5 4 7 5 5 6 4 5 5 4 5 3 2 1 1 1 3 5 5 6 6 6 6 6 6 8 13 17 19 20 20 18 15 11 11 15 19 21 24 26 27 28 29 32 34 36 38 39 39 39 39 38 36 34 32 29 27 26 25 23 19 17
4 3 2 4 5 7 7 7 5 1 3 5 3 3 5 4 3 5 3 4 4 2 5 6 5 5 7 6 5 6 5 4 3 3 3 2 1 2 1 1 4 5 5 6 7 6 6 6 6 7 11 15 18 20 21 21 21 20 17 15 14 17 21 24 25 26 26 27 28 30 33 36 38 38 37 36 35 33 31 29 27 25 24 20 18 16
4 2 3 2 4 5 5 6 5 3 4 4 4 5 6 6 5 6 7 7 6 5 8 7 6 6 7 6 6 6 4 4 5 5 3 2 1 3 4 5 6 6 6 6 6 5 5 5 5 7 10 13 14 16 18 19 21 21 22 21 18 15 16 20 23 25 25 25 24 23 24 25 27 30 32 34 35 34 32 29 26 24 22 19 17 15
3 2 3 1 3 6 5 5 4 4 4 3 4 5 5 7 8 8 7 6 8 8 9 6 6 8 6 6 8 6 4 4 4 4 4 4 4 5 6 6 6 6 6 5 5 4 3 2 2 4 7 10 12 12 14 15 17 19 21 23 22 19 16 15 19 22 23 24 24 24 23 22 22 25 27 29 30 30 29 27 24 23 21 18 16 15
2 2 2 2 3 6 6 5 4 2 3 4 5 4 5 6 7 7 5 4 5 7 8 5 5 8 6 5 7 5 4 1 2 5 5 4 5 6 6 6 5 5 5 6 6 5 4 3 3 3 5 8 10 11 12 14 15 16 18 20 22 22 20 16 16 19 22 24 26 27 27 25 24 23 23 22 22 23 23 23 22 21 20 18 16 15
2 1 2 4 3 6 4 5 6 5 3 5 6 5 6 7 6 5 4 4 6 6 5 3 4 6 5 3 2 3 5 4 3 4 5 5 4 4 5 5 6 6 6 6 6 6 7 6 5 6 8 10 12 13 14 15 16 16 17 19 20 21 22 19 17 18 21 24 26 28 29 28 26 23 23 24 24 25 24 23 23 22 20 18 17 16
2 1 1 1 2 6 4 5 5 4 5 8 7 7 10 9 7 5 3 5 7 6 5 4 5 6 3 2 2 2 4 3 2 4 4 4 4 2 1 2 4 5 6 6 7 7 7 8 9 10 13 16 18 19 19 18 18 20 22 22 22 21 22 23 21 21 23 23 25 28 29 29 28 27 28 29 29 29 27 26 25 23 21 18 17 15
4 4 3 3 3 6 4 2 3 3 6 8 5 8 10 9 8 7 5 6 7 4 4 4 4 4 3 4 5 3 2 2 4 6 5 4 3 1 1 2 3 5 6 6 7 7 7 9 13 15 17 20 22 23 24 23 23 25 27 27 25 23 22 24 25 24 25 25 26 28 29 30 30 30 31 31 30 29 28 27 25 23 20 18 17 15
3 4 3 2 3 4 1 3 1 6 7 5 3 3 6 7 7 7 5 6 5 4 3 4 4 4 4 4 5 5 5 5 6 7 6 5 5 4 1 4 5 6 6 7 7 7 9 12 15 17 19 22 24 25 27 28 28 30 31 29 26 25 24 24 25 26 27 27 27 28 29 30 31 31 32 32 31 29 28 28 27 24 21 18 17 16
4 3 2 2 2 2 1 3 5 5 4 5 6 4 1 0 2 1 4 6 3 4 4 4 4 4 4 4 4 4 4 5 5 6 6 5 5 5 3 4 5 5 5 7 7 8 12 15 17 18 20 23 25 26 27 30 31 31 32 31 28 26 25 24 24 26 27 28 29 29 31 31 31 32 34 34 33 33 32 30 27 24 21 18 17 16
5 3 2 2 3 2 3 3 3 4 7 6 4 3 1 1 2 2 3 5 5 3 3 4 3 4 4 4 5 4 2 1 4 5 5 5 5 5 5 5 6 6 8 10 12 13 15 18 19 20 22 24 26 27 29 32 33 31 32 31 28 26 25 24 25 25 26 28 29 30 32 32 31 32 35 36 35 34 32 29 25 22 20 19 18 15
4 5 4 3 2 2 2 3 3 4 6 4 3 4 2 3 6 5 3 1 5 4 1 3 4 6 5 5 6 4 1 2 3 5 6 6 7 6 5 6 7 9 11 12 14 15 16 18 19 21 24 25 26 28 30 32 32 30 30 30 28 26 25 25 25 25 25 27 29 31 32 31 31 33 36 37 36 34 30 26 24 22 19 18 16 13
2 1 4 4 1 1 3 4 3 3 5 5 5 6 4 5 6 2 4 1 5 4 2 3 5 6 5 6 5 1 2 3 4 5 6 7 7 5 5 6 8 11 14 14 14 15 16 19 21 23 24 24 26 28 29 30 29 27 27 28 27 26 26 26 26 26 25 26 29 31 31 30 32 36 38 37 35 32 28 24 21 19 16 13 11 9
5 4 3 3 4 2 3 3 3 2 3 4 5 5 6 6 3 5 2 3 5 5 4 5 6 7 6 5 3 0 1 4 5 5 5 5 6 5 6 8 9 12 15 16 16 16 18 20 21 23 23 24 26 28 28 27 25 23 23 25 25 26 27 28 29 27 25 26 27 27 27 27 29 31 31 30 28 25 23 21 18 16 14 11 8 6
3 3 1 2 3 3 3 3 3 2 3 4 4 4 5 5 4 4 3 5 4 6 5 4 6 7 5 4 3 2 4 6 6 5 4 4 7 8 9 12 14 14 15 17 17 18 19 21 21 21 23 25 26 27 26 24 23 22 22 23 24 26 29 32 31 27 23 23 24 24 24 25 25 23 22 23 23 22 20 19 17 15 13 10 7 5
2 2 2 0 1 1 2 2 2 3 3 4 3 3 3 2 2 2 4 3 3 5 5 4 5 6 5 5 5 5 6 7 7 7 6 5 7 8 9 12 14 15 16 16 17 18 20 21 21 20 22 24 25 24 23 22 22 22 21 22 25 28 31 32 27 20 18 21 22 24 27 27 26 24 22 22 23 23 20 17 15 12 10 8 5 4
1 1 3 2 1 0 1 0 1 2 3 3 1 3 3 1 2 4 3 2 3 4 4 4 4 5 5 6 6 7 7 8 8 9 8 7 7 8 10 11 11 14 16 17 18 20 20 20 20 20 22 24 23 22 22 21 21 20 21 24 28 30 29 25 19 18 22 25 28 31 32 30 28 28 27 24 23 21 18 15 12 9 7 6 5 5
1 1 1 2 1 1 0 1 2 3 3 2 2 1 2 4 4 3 2 2 4 3 3 4 5 6 6 6 6 7 7 8 9 9 8 8 8 8 9 10 11 14 17 18 20 23 21 19 20 21 23 23 22 21 21 19 18 19 22 26 28 26 22 19 22 27 30 32 34 34 32 30 30 28 26 24 23 21 18 15 11 9 8 6 6 7
2 2 3 3 3 2 4 5 4 3 3 1 2 3 6 6 4 4 5 4 4 4 4 4 6 8 7 6 7 7 6 8 9 9 9 10 9 8 9 12 14 15 17 19 22 24 22 20 21 21 22 23 22 21 19 15 15 16 18 19 19 17 20 26 31 33 34 34 34 33 31 30 29 27 25 25 24 21 17 14 11 9 8 6 6 7
3 1 2 2 3 4 3 5 4 3 3 3 3 4 6 6 4 4 4 5 5 5 5 5 6 8 8 7 6 6 7 9 9 10 10 10 10 10 10 12 14 16 17 19 21 22 22 21 20 19 19 20 21 20 15 10 9 9 7 6 7 15 24 31 35 35 35 36 35 33 31 30 29 27 25 23 21 18 15 13 10 8 7 6 6 7
3 1 1 2 3 4 3 4 4 4 5 6 6 6 6 6 6 5 5 6 6 6 6 6 7 8 8 7 7 8 10 10 9 10 10 9 9 10 9 10 13 15 17 18 20 22 21 19 17 16 15 17 20 18 10 5 3 1 2 4 9 18 25 31 34 35 35 35 33 29 28 28 28 26 22 20 19 16 13 11 8 6 5 4 5 6
3 1 1 3 4 4 5 6 7 8 8 7 7 6 5 6 8 7 7 7 7 7 7 7 7 7 7 8 9 9 10 10 9 9 9 8 8 9 8 9 12 15 17 20 21 20 19 17 15 14 13 15 17 13 2 6 6 6 8 12 17 25 30 32 33 31 29 28 28 26 26 25 23 22 20 18 17 14 12 10 7 5 3 1 2 3
2 2 3 3 3 4 6 7 7 8 8 7 6 6 6 6 8 8 8 8 7 8 9 9 9 8 7 9 9 8 8 10 9 9 10 9 8 8 8 11 14 16 18 19 20 19 17 16 15 12 12 14 11 2 9 12 11 13 16 19 24 29 32 32 30 28 26 26 26 26 26 23 20 19 19 18 16 13 11 9 7 5 3 2 1 1
2 3 5 3 4 5 6 7 6 4 6 8 8 7 7 7 8 8 8 8 8 9 9 9 10 9 9 10 9 7 8 10 10 9 9 8 8 9 10 12 14 16 18 19 19 18 18 17 14 12 12 12 3 13 17 14 14 17 20 22 25 27 28 29 29 28 26 26 26 27 26 23 22 21 19 17 15 12 10 9 7 6 5 3 2 1
4 5 5 4 5 7 9 10 7 4 6 10 9 8 8 7 7 9 9 9 9 9 8 7 9 9 8 9 10 9 8 9 10 10 9 9 10 12 13 14 14 15 17 18 18 18 18 16 12 11 11 5 12 21 19 17 19 18 16 19 21 20 21 24 27 25 24 25 27 28 25 23 22 21 19 16 14 12 11 9 7 7 7 5 3 1
Wind_Direction
102 76 277 225 234 240 233 205 187 185 168 159 119 124 132 85 296 285 272 296 22 109 309 249 234 308 289 280 287 281 186 176 191 200 206 206 197 194 195 195 194 197 198 189 191 194 192 187 181 177 175 174 174 175 175 172 172 173 174 176 172 167 164 158 155 154 153 152 154 152 148 140 135 141 149 155 160 159 160 168 198 227 230 215 207 184
52 81 250 230 225 227 228 208 173 122 106 105 117 98 357 67 264 275 260 307 349 113 304 286 198 288 274 269 281 300 17 152 176 190 200 203 203 201 201 201 194 185 160 169 195 201 196 189 183 179 176 175 176 175 177 176 173 173 175 177 174 169 167 162 160 161 159 160 162 160 156 148 142 146 157 161 161 164 168 177 216 238 219 204 200 179
3 273 253 242 207 172 117 132 129 107 97 81 102 85 340 264 283 300 290 314 360 95 293 320 50 281 275 274 279 290 267 213 183 183 199 203 203 210 210 202 178 164 167 179 198 204 199 190 184 182 180 181 180 177 178 178 174 172 173 175 173 171 169 167 169 171 168 168 168 165 161 156 149 149 163 167 153 149 157 163 176 192 214 222 212 148
310 254 245 221 131 132 86 93 110 103 90 87 114 117 280 265 278 290 296 320 348 44 238 49 32 305 299 311 289 282 264 269 206 183 197 200 203 210 208 200 184 177 181 187 199 205 196 187 186 188 186 185 182 178 179 178 174 173 173 174 173 173 174 172 176 181 178 174 172 170 166 160 156 155 166 171 156 150 154 158 171 197 249 249 232 194
251 255 236 99 126 154 185 184 145 163 235 291 168 154 204 238 211 219 277 326 341 357 44 72 23 320 324 339 298 306 337 314 318 191 209 210 210 212 203 199 196 190 188 189 194 199 195 192 191 190 189 188 185 183 182 180 176 175 176 176 175 176 177 178 181 186 183 176 173 170 167 164 159 159 171 180 178 173 170 173 185 205 280 262 216 184
260 263 194 210 228 164 175 222 202 176 200 305 244 194 197 207 210 232 327 18 25 344 338 49 17 290 319 325 272 298 343 311 322 330 266 240 211 202 205 202 194 196 198 196 195 195 199 198 189 187 190 191 190 188 184 182 179 178 179 179 179 180 181 182 185 188 185 179 175 171 169 170 167 169 177 184 185 181 178 180 186 169 102 92 144 166
264 286 35 223 234 170 174 229 227 164 135 313 246 203 184 158 143 162 123 82 102 258 295 50 149 249 317 314 267 303 334 301 305 306 278 272 235 197 205 204 190 191 196 199 202 201 205 197 181 185 195 196 195 191 185 183 183 182 182 182 183 184 183 183 187 192 190 183 181 181 181 183 183 184 184 185 186 185 185 185 185 171 132 104 100 128
267 325 360 31 117 147 175 229 222 150 126 235 235 167 148 144 158 166 146 142 195 235 315 15 111 190 299 280 277 330 337 302 302 295 280 277 261 221 209 206 194 190 189 190 199 205 208 197 186 191 197 198 196 190 186 186 186 186 184 184 186 187 186 187 190 196 195 189 188 189 191 193 196 197 189 185 190 192 196 196 191 180 155 131 112 102
254 311 304 255 87 146 202 215 189 145 141 242 211 149 149 162 165 144 131 156 256 76 305 321 55 161 273 277 304 353 322 286 286 284 282 280 273 249 216 210 199 191 188 188 194 203 206 198 196 198 197 196 194 191 190 188 188 188 187 188 190 192 191 190 194 198 197 195 194 193 196 199 202 203 195 190 198 201 201 201 197 187 167 155 144 120
239 226 216 163 135 209 231 220 171 157 190 233 158 118 65 65 93 96 116 141 53 71 240 266 218 170 271 286 310 347 273 263 271 275 277 278 280 270 230 211 199 189 188 193 196 200 206 203 200 198 194 193 193 193 191 189 190 190 190 192 195 196 196 194 196 198 197 197 197 197 200 203 203 201 198 198 203 206 208 207 202 196 181 169 163 151
287 269 178 157 180 202 210 203 169 173 184 144 103 74 32 26 42 48 75 105 79 281 248 244 204 162 258 283 260 233 229 240 279 289 291 297 308 308 271 210 192 187 185 193 201 205 206 201 194 190 190 191 192 192 192 191 192 193 194 195 197 199 199 198 198 199 199 199 200 202 204 206 205 202 202 203 203 206 210 211 207 205 201 192 181 177
331 322 208 243 224 161 138 111 56 30 75 92 85 71 51 335 10 21 358 42 140 257 261 245 193 143 191 261 250 252 271 268 254 273 293 312 333 339 328 226 181 196 195 190 196 204 196 173 171 182 188 189 189 192 195 194 195 195 196 197 198 200 201 201 201 201 202 202 203 206 206 206 205 205 208 208 208 210 212 212 212 213 215 214 208 203
323 251 266 306 271 135 111 322 331 2 33 81 95 81 87 316 2 339 301 322 211 252 255 216 154 146 220 249 260 272 285 281 261 261 283 325 3 6 356 7 106 137 223 211 203 194 177 166 175 180 182 186 190 196 198 198 197 197 197 197 199 202 203 204 203 204 207 207 206 206 206 205 205 208 213 214 215 217 218 216 215 218 223 224 224 224
325 302 325 341 298 120 123 155 264 321 32 136 144 121 132 132 63 268 270 282 255 269 269 219 196 259 269 285 281 275 286 304 319 300 305 35 38 32 21 23 52 88 147 221 248 212 183 182 183 181 185 189 194 199 200 199 199 198 198 199 200 203 205 205 205 206 209 211 210 208 207 206 205 209 214 219 222 223 223 223 222 225 230 231 233 238
79 306 299 181 276 334 106 153 169 168 179 200 171 131 142 156 162 225 228 213 250 273 292 288 232 196 154 278 276 271 292 355 33 17 47 51 44 46 40 32 30 30 93 159 202 226 217 201 189 186 189 193 198 201 201 200 199 199 199 200 202 203 205 206 206 207 210 213 213 211 210 208 208 211 215 220 225 226 227 228 228 230 233 236 239 240
133 257 256 257 284 69 83 206 163 129 117 254 157 107 150 185 161 186 198 180 194 243 292 287 232 216 176 251 281 274 304 33 59 54 48 42 39 48 40 28 34 27 16 59 165 193 230 240 215 200 195 198 201 201 201 201 201 202 201 201 202 204 205 206 207 208 211 214 215 214 212 210 211 214 216 219 223 228 229 230 231 232 234 239 239 236
109 268 276 311 343 55 100 263 81 101 142 232 102 160 236 194 131 124 276 345 81 113 274 263 241 290 346 313 312 343 41 27 34 53 54 42 41 50 41 19 26 32 27 28 67 171 190 225 238 232 221 215 210 205 203 203 204 205 203 202 203 204 205 207 208 209 211 213 215 215 214 212 213 215 217 219 222 226 229 230 232 233 233 235 237 235
145 256 285 21 109 292 50 77 37 20 108 115 152 231 249 19 90 114 152 1 44 202 275 278 206 272 337 211 309 358 47 27 16 47 57 46 44 47 39 23 21 25 30 30 35 50 159 197 212 228 241 245 235 224 218 214 212 209 206 204 203 204 206 208 209 210 212 213 214 216 215 215 216 218 219 221 224 227 228 228 230 230 230 231 233 234
121 235 286 293 165 291 357 79 25 340 29 118 163 204 90 94 284 12 105 192 313 224 281 307 256 243 213 207 248 313 99 60 24 44 55 50 50 47 33 22 19 22 23 18 25 30 25 313 213 213 223 238 235 231 230 229 228 222 215 211 208 207 209 210 210 211 212 214 215 217 217 217 218 221 222 223 225 226 226 228 228 227 227 228 229 231
68 132 279 297 259 303 356 61 196 312 344 39 70 27 44 139 170 175 133 174 202 210 247 301 312 265 235 208 174 175 181 149 87 65 73 75 70 63 47 32 21 23 21 12 14 16 19 15 335 224 212 221 228 229 229 228 228 227 224 221 217 214 213 212 212 212 213 215 216 218 218 218 220 223 225 226 226 226 226 226 226 225 224 224 225 226
30 88 251 296 323 326 336 249 169 177 345 24 18 349 344 19 95 296 253 134 148 179 194 227 278 268 256 213 155 162 185 171 132 107 112 115 110 105 71 45 35 32 26 17 14 12 12 13 6 334 222 215 217 221 227 227 224 223 224 225 224 221 217 216 215 215 216 217 217 218 218 218 220 223 226 226 226 226 225 224 224 224 222 221 221 222
47 141 195 288 331 305 249 239 192 178 166 147 184 245 271 242 341 305 287 310 115 169 178 166 234 267 266 260 164 161 174 189 162 127 120 102 95 98 87 78 65 51 42 34 29 23 18 16 17 15 332 229 218 216 220 221 221 222 223 225 224 222 220 219 218 217 218 218 217 219 219 219 221 223 225 226 225 224 223 223 222 221 219 217 218 218
143 105 118 245 259 240 252 260 248 219 162 119 147 168 126 124 114 145 224 271 302 249 155 126 175 268 271 296 258 178 175 206 210 152 123 85 38 39 39 59 80 69 55 50 49 41 30 28 28 29 25 3 261 232 224 219 218 220 224 226 224 222 222 223 222 221 219 218 219 220 220 220 221 223 224 224 223 222 221 221 220 218 216 214 213 213
85 81 69 295 291 306 301 302 310 295 92 90 57 57 101 116 123 151 179 179 202 235 145 127 235 264 282 321 323 270 273 273 273 235 141 133 348 7 20 30 53 59 54 50 50 44 36 32 30 25 18 11 1 314 248 231 224 222 225 228 227 226 227 227 225 223 220 219 221 222 221 220 220 222 223 223 222 221 220 219 218 216 214 211 209 209
310 322 94 10 332 333 335 347 349 336 40 107 144 35 81 95 86 87 92 91 218 235 163 162 231 244 266 320 329 322 330 329 316 302 140 103 15 2 20 27 41 50 49 47 42 38 36 30 23 15 5 1 2 360 333 266 245 235 231 230 228 229 231 231 229 225 222 220 220 221 221 220 220 221 222 223 222 221 219 217 215 214 211 208 206 206
238 232 138 143 240 247 279 285 265 279 322 98 131 100 58 36 53 345 16 90 226 263 160 162 220 261 289 317 317 307 316 315 304 308 330 15 7 357 36 38 38 46 43 38 40 44 46 37 23 15 6 358 356 357 355 339 291 257 245 239 234 233 234 234 233 230 226 222 220 220 221 221 221 221 223 223 222 221 218 215 213 211 207 205 205 204
125 23 156 152 182 204 209 231 229 191 219 265 242 154 170 306 95 111 99 146 199 229 257 215 198 251 278 273 273 282 273 248 257 298 324 334 355 21 136 89 40 44 36 29 37 43 45 39 26 19 13 6 1 359 359 359 355 335 293 266 253 247 244 242 241 238 232 227 223 222 222 222 222 223 223 222 221 219 216 213 211 207 203 202 204 203
85 353 281 163 200 218 208 229 253 226 216 243 241 178 185 207 171 133 166 218 178 153 272 251 186 213 250 232 242 280 276 259 285 322 302 262 299 344 340 35 38 33 24 27 34 33 33 26 12 12 13 9 6 3 1 358 354 353 347 327 298 273 259 251 245 242 240 236 233 230 228 227 225 223 220 219 217 215 213 209 206 203 201 200 201 203
104 281 272 218 263 264 231 236 254 247 230 229 223 206 197 204 201 190 210 209 162 177 248 237 188 214 236 217 236 268 265 264 302 318 294 279 344 350 12 30 27 18 19 26 24 19 27 22 2 357 359 1 4 1 358 354 349 346 344 341 334 311 280 259 247 242 241 241 242 243 245 243 235 226 219 216 212 207 205 203 200 198 199 199 200 203
123 267 276 244 301 302 279 263 256 240 245 253 247 230 202 198 208 215 226 209 185 211 239 230 221 243 241 214 234 265 272 251 278 325 344 354 354 1 20 26 15 7 11 10 356 350 4 359 334 336 341 347 351 350 348 347 345 342 337 334 332 326 311 279 254 245 241 240 241 243 246 248 243 233 223 212 203 197 196 195 196 197 197 197 200 203
58 292 291 50 357 300 293 309 311 270 240 250 261 245 203 203 222 235 241 209 196 239 257 256 263 269 259 224 236 281 324 8 21 5 357 339 333 358 14 10 0 357 354 349 342 338 331 316 303 306 319 329 331 333 335 333 332 331 330 329 324 319 316 299 269 252 244 238 237 237 237 236 234 228 217 203 192 191 194 194 196 199 198 197 199 201
41 293 339 42 337 277 287 309 300 320 323 268 247 218 202 207 217 222 221 197 188 212 244 272 278 262 254 237 247 325 9 51 34 337 320 313 331 16 19 360 356 348 341 342 339 336 333 326 322 317 317 322 322 323 325 325 322 317 314 316 315 312 310 301 279 261 251 241 235 234 232 229 223 212 205 199 194 195 199 199 198 198 198 197 197 200
153 211 300 73 260 271 279 273 281 348 334 279 240 194 197 211 220 224 244 226 200 181 183 217 236 227 206 129 105 1 360 15 310 273 267 291 320 13 22 349 348 331 323 329 327 325 325 317 313 313 316 320 321 322 323 321 317 313 310 308 307 305 302 297 285 267 255 244 235 232 229 224 217 205 201 201 196 193 194 195 195 196 196 194 195 200
172 189 219 181 218 266 281 317 347 330 268 257 230 184 189 202 205 206 224 227 210 181 170 196 218 208 164 134 146 180 246 267 261 253 247 252 248 245 311 321 328 320 315 314 312 312 311 307 307 308 311 316 317 318 321 319 316 314 311 307 303 298 295 294 289 275 260 246 237 232 225 219 212 204 199 197 191 186 186 188 192 195 194 191 193 199
222 211 223 184 205 250 279 73 274 257 251 262 285 218 197 185 171 179 233 246 210 184 180 182 182 178 175 177 174 186 221 251 266 264 259 240 204 177 344 323 315 313 310 308 307 304 304 304 303 303 307 312 315 316 316 316 315 312 309 304 299 294 290 289 286 278 266 252 239 230 222 214 207 198 193 188 183 181 184 189 192 191 188 189 194 200
222 216 213 188 205 240 125 149 207 247 286 302 303 303 264 175 107 110 299 293 252 199 195 188 194 201 202 217 218 212 234 277 296 277 253 236 203 172 181 268 280 280 280 284 285 287 296 300 299 300 303 307 310 310 310 310 310 308 304 301 297 293 290 287 281 275 265 253 241 231 223 214 203 194 187 182 179 180 184 188 189 186 184 186 191 195
191 176 179 214 218 189 182 212 244 312 317 299 302 331 350 314 292 223 248 284 287 259 182 158 196 250 248 248 256 244 226 352 327 294 263 240 223 211 217 235 252 263 271 278 282 287 296 302 303 303 304 303 303 303 303 304 305 302 299 297 295 292 290 284 277 270 262 251 241 232 223 214 201 189 182 178 177 179 182 184 184 182 182 184 185 187
191 179 174 198 218 158 191 258 291 299 280 266 273 287 261 223 235 211 165 300 302 295 184 159 210 242 241 259 268 255 127 54 317 287 277 264 252 250 259 264 269 274 277 283 290 294 300 304 305 304 301 298 295 297 299 300 300 297 293 292 292 291 287 280 275 271 261 248 238 230 221 210 194 184 179 177 177 178 177 178 177 176 178 182 182 181
352 159 144 161 217 136 167 226 239 228 241 246 261 282 289 261 251 204 92 346 287 293 275 230 247 252 238 241 248 234 38 342 293 270 263 263 261 255 266 283 289 290 290 291 292 293 299 303 304 302 298 292 289 294 298 297 294 291 287 288 290 287 281 277 276 273 263 248 236 225 214 200 188 183 180 175 172 169 165 164 165 165 168 173 173 171
8 19 91 158 226 216 173 219 239 223 245 262 269 287 298 296 329 64 68 266 276 295 271 229 247 264 248 235 239 101 294 264 262 262 260 267 278 277 274 281 286 289 292 293 292 293 297 299 298 296 292 288 289 295 297 293 288 284 283 286 286 280 277 277 277 275 265 247 229 214 202 190 183 177 169 160 155 152 150 150 153 155 157 160 160 166
355 345 71 163 217 226 208 239 264 256 259 276 284 293 303 328 40 87 204 240 275 294 277 232 243 261 251 240 245 231 235 243 253 278 294 291 293 290 283 284 286 285 284 284 289 294 296 295 292 288 286 288 293 296 296 291 284 279 281 284 280 275 275 277 277 274 257 231 211 196 185 174 163 152 144 142 142 140 140 141 143 147 151 154 162 180
341 328 332 65 212 232 196 211 277 290 253 238 265 309 335 18 73 206 236 240 254 280 287 261 250 261 262 259 252 244 258 272 282 293 294 276 274 280 285 290 294 293 288 285 288 294 295 295 294 289 287 292 295 295 295 290 279 275 279 278 273 274 278 277 271 255 222 197 181 169 162 153 145 142 144 142 135 131 131 134 136 141 148 157 173 203
247 292 302 268 220 300 31 61 299 280 251 226 280 350 3 62 221 246 270 287 273 284 298 279 258 257 255 258 262 264 274 284 287 288 284 268 258 265 275 281 284 287 289 289 291 296 296 294 295 295 296 299 298 296 296 289 278 276 277 274 274 277 275 263 239 202 178 161 150 145 143 141 142 145 144 136 126 123 127 134 140 148 159 173 194 214
226 181 255 264 217 120 121 242 219 213 231 214 137 145 247 247 237 212 210 278 287 278 267 266 272 266 252 250 265 273 277 282 283 283 283 279 269 262 270 276 277 281 284 285 292 299 299 295 295 298 301 302 298 297 299 291 279 276 277 277 280 275 255 218 183 163 152 143 137 136 138 140 142 140 134 128 126 127 132 139 150 162 171 185 205 220
233 190 194 227 250 210 202 228 240 241 257 234 161 215 258 263 241 188 191 236 262 251 238 253 272 274 266 256 261 268 276 278 278 279 279 280 279 278 280 282 281 280 281 285 293 298 298 296 296 299 301 298 294 298 302 291 276 276 278 278 272 245 202 171 154 146 140 134 133 136 140 143 141 137 133 132 131 132 138 147 156 164 170 188 212 229
264 280 150 193 275 294 263 251 257 264 275 276 252 258 270 269 249 217 221 242 249 245 244 245 255 267 271 266 259 262 265 265 270 277 278 279 284 284 280 280 278 276 277 283 290 293 295 297 296 297 297 291 291 301 303 282 271 281 282 269 229 191 168 152 141 135 131 131 135 140 143 144 143 142 142 141 137 135 138 141 145 152 165 189 216 233
286 343 96 219 274 301 293 282 287 286 285 293 289 278 274 270 262 252 248 253 255 256 257 257 259 264 268 264 256 254 258 261 268 277 279 280 280 277 274 273 270 269 272 279 285 290 293 292 291 295 291 285 294 306 299 246 234 311 74 94 125 139 135 129 127 126 128 135 141 144 146 146 147 147 146 145 142 138 129 124 130 146 167 196 227 246
277 330 318 245 236 237 243 262 282 288 283 279 272 266 264 262 263 262 259 260 265 269 269 266 263 258 257 255 247 244 254 263 265 267 272 272 269 270 269 263 261 266 274 279 283 287 287 285 288 289 280 285 303 311 262 138 111 102 101 94 103 113 112 112 116 121 128 136 140 141 143 145 147 148 145 141 138 131 122 120 124 131 142 175 266 279
246 296 279 253 262 275 266 264 275 289 291 276 255 249 250 251 257 264 265 263 263 266 268 269 263 254 251 254 250 244 255 265 262 259 263 266 265 266 265 262 264 271 276 279 284 284 281 283 286 278 278 297 309 266 138 119 105 106 105 101 104 109 111 116 123 130 137 141 140 140 142 146 150 151 145 137 129 121 116 116 110 100 93 71 24 341
179 249 254 262 285 278 267 264 262 268 283 279 268 260 257 255 261 268 269 267 262 258 261 268 272 268 260 256 252 246 253 264 264 260 261 264 263 261 262 266 272 276 279 283 285 282 279 282 278 267 284 303 246 154 141 128 123 121 117 120 124 126 130 137 142 146 150 149 147 146 149 153 154 150 142 133 128 125 122 118 106 91 88 84 74 37
184 223 228 228 246 251 261 270 265 249 262 271 272 267 260 257 260 262 263 267 268 266 263 264 274 282 278 266 256 246 248 261 266 265 264 266 261 259 263 269 273 277 282 284 283 280 279 277 266 268 289 274 165 153 146 146 148 142 139 148 151 151 154 155 153 153 153 150 150 153 157 156 150 143 138 134 131 131 130 126 115 100 94 97 98 358